Regional Weather Roundup
Issued by NWS Boston, MA

Home | Current Version | Previous Version | Text Only | Print | Product List | Glossary On
Versions: 1 2 3 4 5 6 7 8 9 10 11 12 13 14 15 16 17 18 19 20 21 22 23 24 25 26 27
000
ASUS41 KBOX 300810
RWRBOX

REGIONAL WEATHER ROUNDUP
NATIONAL WEATHER SERVICE TAUNTON MA
400 AM EDT TUE MAY 30 2017

NOTE:  "FAIR" INDICATES FEW OR NO CLOUDS BELOW 12,000 FEET WITH NO
SIGNIFICANT WEATHER AND/OR OBSTRUCTIONS TO VISIBILITY.

MAZALL-300900-
EASTERN MASSACHUSETTS

CITY           SKY/WX    TMP DP  RH WIND       PRES   REMARKS
BOSTON         CLOUDY    49  48  97 N3        30.16S
BEVERLY        CLOUDY    49  48  97 NE5       30.15R FOG
LAWRENCE       CLOUDY    49  47  93 CALM      30.17S
BEDFORD        CLOUDY    48  45  89 CALM      30.15R
BLUE HILL        N/A     47  46  97 CALM      30.14R
NORWOOD        CLOUDY    50  48  93 CALM      30.16R
MARSHFIELD     CLOUDY    50  50 100 CALM      30.15S
PLYMOUTH       CLOUDY    49  48  97 N5        30.15S FOG
TAUNTON        CLOUDY    49  47  93 CALM      30.15S
NEW BEDFORD    CLOUDY    49  48  97 CALM      30.15R
$$

MAZALL-300900-
CAPE COD AND THE ISLANDS

CITY           SKY/WX    TMP DP  RH WIND       PRES   REMARKS
FALMOUTH         N/A    N/A N/A N/A MISG        N/A
HYANNIS        CLOUDY    51  50  96 NE6       30.12F
CHATHAM        CLOUDY    50  50 100 NE6       30.14S FOG
PROVINCETOWN   CLOUDY    50  48  93 N6        30.16R
NANTUCKET      CLOUDY    50  49  96 NE7       30.13F FOG
MARTHAS VNYRD  CLOUDY    52  50  93 N5        30.14R
$$

MAZALL-300900-
CENTRAL AND WESTERN MASSACHUSETTS

CITY           SKY/WX    TMP DP  RH WIND       PRES   REMARKS
WORCESTER      CLOUDY    46  44  93 CALM      30.14S
FITCHBURG      CLOUDY    49  48  97 E3        30.16R
ORANGE         CLOUDY    49  48  97 SE5       30.14S
SPRINGFIELD    CLOUDY    50  50 100 CALM      30.13S
WESTFIELD      CLOUDY    51  51 100 CALM      30.14S FOG
NORTH ADAMS    CLOUDY    52  48  86 E7        30.10S
$$

RIZALL-300900-
RHODE ISLAND

CITY           SKY/WX    TMP DP  RH WIND       PRES   REMARKS
PROVIDENCE     CLOUDY    49  49 100 NE5       30.16S
NEWPORT        CLOUDY    50  50 100 N5        30.15R
BLOCK ISLAND   CLOUDY    51  50  96 NE6       30.15S
SMITHFIELD     FOG       48  48 100 CALM      30.16S VSB 1/4
WESTERLY       CLOUDY    52  50  93 NE3       30.15S
$$

CTZALL-300900-
CONNECTICUT

CITY           SKY/WX    TMP DP  RH WIND       PRES   REMARKS
BRADLEY INTL   CLOUDY    52  49  89 SE6       30.14S
HARTFORD       CLOUDY    53  50  89 SE3       30.14S
BRIDGEPORT     CLOUDY    55  51  86 E7        30.14S
DANBURY        CLOUDY    52  52 100 SE8       30.14S
GROTON         CLOUDY    52  50  93 CALM      30.15R
NEW HAVEN      CLOUDY    53  50  89 SE5       30.14F
CHESTER        CLOUDY    52  50  93 CALM      30.14S
MERIDEN        CLOUDY    53  50  89 CALM      30.14S
WILLIMANTIC    CLOUDY    53  50  89 CALM      30.16R
OXFORD           N/A     52  46  82 SE6       30.14S
$$

MEZ002-015-021-024-NHZ003-005-008-011-012-014-VTZ005-008-300900-
NORTHERN NEW ENGLAND

CITY           SKY/WX    TMP DP  RH WIND       PRES   REMARKS
PORTLAND ME    CLOUDY    48  47  96 CALM      30.16R FOG
BANGOR ME      CLOUDY    48  47  96 CALM      30.16S
CONCORD NH     CLOUDY    47  45  93 SE3       30.15R
MANCHESTER NH  CLOUDY    48  44  86 SE3       30.14R
NASHUA NH      CLOUDY    48  47  96 CALM      30.16R
PORTSMOUTH NH  CLOUDY    46  46  98 CALM      30.15R FOG
JAFFREY NH     CLOUDY    47  47 100 CALM      30.14R
KEENE NH       CLOUDY    49  47  93 CALM      30.14S
BURLINGTON VT  PTCLDY    57  50  77 S12G20    30.02R
MT. WASHINGTON CLOUDY    41  39  93 W15         N/A
$$

NYZ052-076-300900-
EASTERN NEW YORK

CITY           SKY/WX    TMP DP  RH WIND       PRES   REMARKS
ALBANY         CLOUDY    56  51  84 S9        30.08R
NEW YORK CITY  CLOUDY    56  51  84 SE7       30.13R
$$

ANZALL-300900-
MARINE OBSERVATIONS

STATION/POSITION TIME  TEMP    WIND        PRES    VSBY  WAVE
                       AIR SEA DIR/SP/G                  HT/PER
                 (UTC) (F)     (DEG/KT/KT) (MB)    (MI)  (FT/S)
BOSTON BUOY      NOT AVBL
BUZZARDS BAY     0700   51      30/ 10/ 12 1020.8R
NANTUCKET SOUND  NOT AVBL
MASS BAY-STELLWA 0704   48 51  360/  6/  8 1020.1R         3/ 6
ISLE OF SHOALS   0700   46      20/  6/  7 1020.8R
S OF BLOCK IS    0755      53                N/A           4/ 8
$$

......................KEY.........................
  SKY/WX - SKY CONDITION/PRESENT WEATHER
  TMP    - TEMPERATURE IN FAHRENHEIT
  DWPT   - DEWPOINT IN FAHRENHEIT
  RH     - RELATIVE HUMIDITY IN PERCENT
  WIND   - DIRECTION AND SPEED IN MPH
  PRES   - MEAN SEA LEVEL PRESSURE IN INCHES OF HG
  WCI    - WIND CHILL INDEX
  VSB    - VISIBILITY IN MILES
  HX     - HEAT INDEX
  TC     - TEMPERATURE IN CELSIUS
  VRB    - VARIABLE WIND DIRECTION
  N/A    - NOT AVAILABLE




USA.gov is the U.S. government's official web portal to all federal, state and local government web resources and services.